| time (UTC) | temp F | wind direction | speed MPH | gust MPH | rain 1hr in | rain 24hr in | rain mn in | humidity % | barometer mb |
| 20260506031925 | 70 | 179 | 1.0 | 2.0 | 0.00 | 0.00 | 0.00 | 89 | 1006.9 |
| 20260506031417 | 70 | 205 | 1.0 | 3.0 | 0.00 | 0.00 | 0.00 | 89 | 1006.9 |
| 20260506030917 | 70 | 213 | 1.0 | 2.0 | 0.00 | 0.00 | 0.00 | 89 | 1006.9 |
| 20260506030417 | 70 | 233 | 1.0 | 3.0 | 0.00 | 0.00 | 0.00 | 89 | 1007.0 |
| 20260506025917 | 70 | 86 | 2.0 | 4.0 | 0.00 | 0.00 | 0.00 | 89 | 1006.9 |
| 20260506025417 | 70 | 256 | 1.0 | 4.0 | 0.00 | 0.00 | 0.00 | 89 | 1006.8 |
| 20260506024917 | 70 | 238 | 1.0 | 2.0 | 0.00 | 0.00 | 0.00 | 88 | 1006.7 |
| 20260506024417 | 70 | 161 | 1.0 | 4.0 | 0.00 | 0.00 | 0.00 | 88 | 1006.7 |
| 20260506023917 | 70 | 272 | 1.0 | 2.0 | 0.00 | 0.00 | 0.00 | 88 | 1006.8 |
| 20260506023417 | 70 | 177 | 1.0 | 3.0 | 0.00 | 0.00 | 0.00 | 88 | 1006.9 |
| 20260506022945 | 70 | 198 | 1.0 | 5.0 | 0.00 | 0.00 | 0.00 | 88 | 1006.8 |
| 20260506022418 | 70 | 164 | 1.0 | 3.0 | 0.00 | 0.00 | 0.00 | 88 | 1006.7 |
| 20260506021917 | 70 | 180 | 2.0 | 5.0 | 0.00 | 0.00 | 0.00 | 88 | 1006.7 |
| 20260506021417 | 70 | 211 | 1.0 | 5.0 | 0.00 | 0.00 | 0.00 | 88 | 1006.6 |
| 20260506020917 | 70 | 144 | 1.0 | 4.0 | 0.00 | 0.00 | 0.00 | 88 | 1006.6 |
| 20260506020417 | 70 | 169 | 2.0 | 4.0 | 0.00 | 0.00 | 0.00 | 88 | 1006.5 |
| 20260506015917 | 70 | 172 | 2.0 | 6.0 | 0.00 | 0.00 | 0.00 | 88 | 1006.3 |
| 20260506015417 | 70 | 179 | 2.0 | 7.0 | 0.00 | 0.00 | 0.00 | 88 | 1006.3 |
| 20260506014946 | 70 | 169 | 2.0 | 6.0 | 0.00 | 0.00 | 0.00 | 88 | 1006.3 |
| 20260506014417 | 70 | 193 | 2.0 | 7.0 | 0.00 | 0.00 | 0.00 | 88 | 1006.2 |
| 20260506013917 | 70 | 225 | 2.0 | 4.0 | 0.00 | 0.00 | 0.00 | 88 | 1006.4 |
| 20260506013417 | 70 | 238 | 3.0 | 7.0 | 0.00 | 0.00 | 0.00 | 88 | 1006.1 |
| 20260506012917 | 70 | 165 | 3.0 | 7.0 | 0.00 | 0.00 | 0.00 | 89 | 1005.9 |
| 20260506012417 | 70 | 183 | 3.0 | 6.0 | 0.00 | 0.00 | 0.00 | 89 | 1006.1 |
| 20260506011918 | 70 | 236 | 2.0 | 6.0 | 0.00 | 0.00 | 0.00 | 89 | 1006.2 |
| 20260506011417 | 70 | 140 | 1.0 | 4.0 | 0.00 | 0.00 | 0.00 | 89 | 1006.3 |
| 20260506010925 | 70 | 193 | 2.0 | 5.0 | 0.00 | 0.00 | 0.00 | 89 | 1005.9 |
| 20260506010417 | 70 | 147 | 2.0 | 6.0 | 0.00 | 0.00 | 0.00 | 89 | 1006.1 |
| 20260506005917 | 70 | 168 | 2.0 | 6.0 | 0.00 | 0.00 | 0.00 | 89 | 1006.0 |
| 20260506005419 | 70 | 207 | 2.0 | 7.0 | 0.00 | 0.00 | 0.00 | 89 | 1006.1 |
| 20260506004921 | 70 | 148 | 2.0 | 5.0 | 0.00 | 0.00 | 0.00 | 89 | 1005.9 |
| 20260506004419 | 70 | 168 | 2.0 | 6.0 | 0.00 | 0.00 | 0.00 | 89 | 1006.1 |
| 20260506003917 | 70 | 179 | 3.0 | 5.0 | 0.00 | 0.00 | 0.00 | 90 | 1006.1 |
| 20260506003417 | 70 | 188 | 3.0 | 7.0 | 0.00 | 0.00 | 0.00 | 89 | 1005.9 |
| 20260506002917 | 70 | 165 | 3.0 | 7.0 | 0.00 | 0.00 | 0.00 | 90 | 1006.0 |
| 20260506002417 | 70 | 126 | 2.0 | 6.0 | 0.00 | 0.00 | 0.00 | 90 | 1006.0 |
| 20260506001917 | 70 | 152 | 2.0 | 4.0 | 0.00 | 0.00 | 0.00 | 90 | 1006.2 |
| 20260506001431 | 70 | 160 | 2.0 | 6.0 | 0.00 | 0.00 | 0.00 | 90 | 1006.0 |
| 20260506000917 | 70 | 174 | 3.0 | 5.0 | 0.00 | 0.00 | 0.00 | 90 | 1006.2 |
| 20260506000423 | 70 | 188 | 3.0 | 7.0 | 0.00 | 0.00 | 0.00 | 90 | 1006.0 |
| 20260505235917 | 70 | 177 | 3.0 | 7.0 | 0.00 | 0.00 | 0.00 | 90 | 1006.1 |
| 20260505235417 | 70 | 185 | 2.0 | 6.0 | 0.00 | 0.00 | 0.00 | 90 | 1006.2 |
| 20260505234917 | 70 | 157 | 2.0 | 6.0 | 0.00 | 0.00 | 0.00 | 90 | 1006.2 |
| 20260505234418 | 70 | 170 | 2.0 | 5.0 | 0.00 | 0.00 | 0.00 | 90 | 1006.4 |
| 20260505233917 | 70 | 210 | 2.0 | 7.0 | 0.00 | 0.00 | 0.00 | 90 | 1006.6 |
| 20260505233417 | 70 | 188 | 3.0 | 5.0 | 0.00 | 0.00 | 0.00 | 90 | 1006.7 |
| 20260505232917 | 70 | 135 | 3.0 | 6.0 | 0.00 | 0.00 | 0.00 | 90 | 1006.8 |
| 20260505232417 | 70 | 157 | 2.0 | 6.0 | 0.00 | 0.00 | 0.00 | 90 | 1007.0 |
| 20260505231917 | 70 | 168 | 2.0 | 8.0 | 0.00 | 0.00 | 0.00 | 89 | 1006.9 |
| 20260505231417 | 70 | 195 | 1.0 | 5.0 | 0.00 | 0.00 | 0.00 | 89 | 1006.9 |
| 20260505230919 | 70 | 186 | 2.0 | 4.0 | 0.00 | 0.00 | 0.00 | 89 | 1006.9 |
| 20260505230417 | 70 | 158 | 3.0 | 6.0 | 0.00 | 0.00 | 0.00 | 89 | 1007.0 |
| 20260505225919 | 70 | 166 | 2.0 | 5.0 | 0.00 | 0.00 | 0.00 | 89 | 1007.1 |
| 20260505225417 | 70 | 161 | 2.0 | 5.0 | 0.00 | 0.00 | 0.00 | 89 | 1006.9 |
| 20260505224917 | 70 | 173 | 2.0 | 4.0 | 0.00 | 0.00 | 0.00 | 89 | 1007.0 |
| 20260505224417 | 70 | 171 | 2.0 | 5.0 | 0.00 | 0.00 | 0.00 | 89 | 1007.0 |
| 20260505223917 | 70 | 162 | 2.0 | 5.0 | 0.00 | 0.00 | 0.00 | 89 | 1007.1 |
| 20260505223417 | 70 | 206 | 2.0 | 7.0 | 0.00 | 0.00 | 0.00 | 89 | 1007.1 |
| 20260505222917 | 70 | 152 | 2.0 | 7.0 | 0.00 | 0.00 | 0.00 | 89 | 1007.1 |
| 20260505222417 | 70 | 159 | 3.0 | 6.0 | 0.00 | 0.00 | 0.00 | 90 | 1007.1 |
| 20260505221917 | 69 | 209 | 2.0 | 8.0 | 0.00 | 0.00 | 0.00 | 90 | 1007.1 |
| 20260505221417 | 70 | 163 | 2.0 | 5.0 | 0.00 | 0.00 | 0.00 | 90 | 1007.2 |
| 20260505220917 | 70 | 167 | 2.0 | 6.0 | 0.00 | 0.00 | 0.00 | 89 | 1007.4 |
| 20260505220417 | 70 | 139 | 2.0 | 6.0 | 0.00 | 0.00 | 0.00 | 88 | 1007.2 |
| 20260505215917 | 71 | 188 | 4.0 | 255.0 | 0.00 | 0.00 | 0.00 | 88 | 1007.3 |
| 20260505215417 | 71 | 266 | 4.0 | 255.0 | 0.00 | 0.00 | 0.00 | 87 | 1007.3 |
| 20260505214917 | 0 | 767 | 255.0 | 255.0 | 0.00 | 0.00 | 0.00 | 1007.6 | |
| 20260505214417 | 0 | 767 | 255.0 | 255.0 | 0.00 | 0.00 | 0.00 | 1007.6 | |
| 20260505213917 | 0 | 767 | 255.0 | 255.0 | 0.00 | 0.00 | 0.00 | 1007.5 | |
| 20260505213418 | 0 | 767 | 255.0 | 255.0 | 0.00 | 0.00 | 0.00 | 1007.6 | |
| 20260505212917 | 0 | 767 | 255.0 | 255.0 | 0.00 | 0.00 | 0.00 | 1007.5 | |
| 20260505212417 | 0 | 767 | 255.0 | 255.0 | 0.00 | 0.00 | 0.00 | 1007.6 | |
| 20260505211917 | 0 | 767 | 255.0 | 255.0 | 0.00 | 0.00 | 0.00 | 1007.6 | |
| 20260505211421 | 0 | 767 | 255.0 | 255.0 | 0.00 | 0.00 | 0.00 | 1007.7 | |
| 20260505210917 | 0 | 767 | 255.0 | 255.0 | 0.00 | 0.00 | 0.00 | 1007.6 | |
| 20260505210420 | 0 | 767 | 255.0 | 255.0 | 0.00 | 0.00 | 0.00 | 1007.7 | |
| 20260505205917 | 0 | 767 | 255.0 | 255.0 | 0.00 | 0.00 | 0.00 | 1007.6 | |
| 20260505205425 | 0 | 767 | 255.0 | 255.0 | 0.00 | 0.00 | 0.00 | 1007.7 | |
| 20260505204917 | 0 | 767 | 255.0 | 255.0 | 0.00 | 0.00 | 0.00 | 1007.7 | |
| 20260505204417 | 0 | 767 | 255.0 | 255.0 | 0.00 | 0.00 | 0.00 | 1007.7 | |
| 20260505203917 | 0 | 767 | 255.0 | 255.0 | 0.00 | 0.00 | 0.00 | 1007.8 | |
| 20260505203417 | 0 | 767 | 255.0 | 255.0 | 0.00 | 0.00 | 0.00 | 1007.7 | |
| 20260505202917 | 0 | 767 | 255.0 | 255.0 | 0.00 | 0.00 | 0.00 | 1007.8 | |
| 20260505202420 | 0 | 767 | 255.0 | 255.0 | 0.00 | 0.00 | 0.00 | 1007.8 | |
| 20260505201917 | 0 | 767 | 255.0 | 255.0 | 0.00 | 0.00 | 0.00 | 1007.9 | |
| 20260505201417 | 0 | 767 | 255.0 | 255.0 | 0.00 | 0.00 | 0.00 | 1008.0 | |
| 20260505200918 | 0 | 767 | 255.0 | 255.0 | 0.00 | 0.00 | 0.00 | 1008.0 | |
| 20260505200418 | 0 | 767 | 255.0 | 255.0 | 0.00 | 0.00 | 0.00 | 1007.9 | |
| 20260505195918 | 0 | 767 | 255.0 | 255.0 | 0.00 | 0.00 | 0.00 | 1008.0 | |
| 20260505195418 | 0 | 767 | 255.0 | 255.0 | 0.00 | 0.00 | 0.00 | 1008.0 | |
| 20260505194918 | 0 | 767 | 255.0 | 255.0 | 0.00 | 0.00 | 0.00 | 1007.9 | |
| 20260505194418 | 0 | 767 | 255.0 | 255.0 | 0.00 | 0.00 | 0.00 | 1007.9 | |
| 20260505193920 | 0 | 767 | 255.0 | 255.0 | 0.00 | 0.00 | 0.00 | 1007.9 | |
| 20260505193420 | 0 | 767 | 255.0 | 255.0 | 0.00 | 0.00 | 0.00 | 1008.1 | |
| 20260505192918 | 0 | 767 | 255.0 | 255.0 | 0.00 | 0.00 | 0.00 | 1008.1 | |
| 20260505192418 | 0 | 767 | 255.0 | 255.0 | 0.00 | 0.00 | 0.00 | 1008.3 | |
| 20260505191918 | 0 | 767 | 255.0 | 255.0 | 0.00 | 0.00 | 0.00 | 1008.2 | |
| 20260505191420 | 0 | 767 | 255.0 | 255.0 | 0.00 | 0.00 | 0.00 | 1008.1 | |
| 20260505190918 | 0 | 767 | 255.0 | 255.0 | 0.00 | 0.00 | 0.00 | 1008.1 | |
| 20260505190418 | 0 | 767 | 255.0 | 255.0 | 0.00 | 0.00 | 0.00 | 1008.3 | |
| 20260505185918 | 0 | 767 | 255.0 | 255.0 | 0.00 | 0.00 | 0.00 | 1008.4 | |
| 20260505185418 | 0 | 767 | 255.0 | 255.0 | 0.00 | 0.00 | 0.00 | 1008.7 | |
| 20260505184918 | 0 | 767 | 255.0 | 255.0 | 0.00 | 0.00 | 0.00 | 1008.7 | |
| 20260505184420 | 0 | 767 | 255.0 | 255.0 | 0.00 | 0.00 | 0.00 | 1008.7 | |
| 20260505183918 | 0 | 767 | 255.0 | 255.0 | 0.00 | 0.00 | 0.00 | 1008.6 | |
| 20260505183418 | 0 | 767 | 255.0 | 255.0 | 0.00 | 0.00 | 0.00 | 1008.6 | |
| 20260505182918 | 0 | 767 | 255.0 | 255.0 | 0.00 | 0.00 | 0.00 | 1008.7 | |
| 20260505182418 | 0 | 767 | 255.0 | 255.0 | 0.00 | 0.00 | 0.00 | 1008.7 | |
| 20260505181918 | 0 | 767 | 255.0 | 255.0 | 0.00 | 0.00 | 0.00 | 1008.7 | |
| 20260505181418 | 0 | 767 | 255.0 | 255.0 | 0.00 | 0.00 | 0.00 | 1008.8 | |
| 20260505180918 | 0 | 767 | 255.0 | 255.0 | 0.00 | 0.00 | 0.00 | 1008.6 | |
| 20260505180418 | 0 | 767 | 255.0 | 255.0 | 0.00 | 0.00 | 0.00 | 1008.9 | |
| 20260505175918 | 0 | 767 | 255.0 | 255.0 | 0.00 | 0.00 | 0.00 | 1008.8 | |
| 20260505175418 | 0 | 767 | 255.0 | 255.0 | 0.00 | 0.00 | 0.00 | 1009.0 | |
| 20260505174920 | 0 | 767 | 255.0 | 255.0 | 0.00 | 0.00 | 0.00 | 1009.1 | |
| 20260505174418 | 0 | 767 | 255.0 | 255.0 | 0.00 | 0.00 | 0.00 | 1009.2 | |
| 20260505173918 | 0 | 767 | 255.0 | 255.0 | 0.00 | 0.00 | 0.00 | 1009.3 | |
| 20260505173418 | 0 | 767 | 255.0 | 255.0 | 0.00 | 0.00 | 0.00 | 1009.3 | |
| 20260505172920 | 0 | 767 | 255.0 | 255.0 | 0.00 | 0.00 | 0.00 | 1009.3 | |
| 20260505172418 | 0 | 767 | 255.0 | 255.0 | 0.00 | 0.00 | 0.00 | 1009.4 | |
| 20260505171918 | 0 | 767 | 255.0 | 255.0 | 0.00 | 0.00 | 0.00 | 1009.6 | |
| 20260505171418 | 0 | 767 | 255.0 | 255.0 | 0.00 | 0.00 | 0.00 | 1009.6 | |
| 20260505170918 | 0 | 767 | 255.0 | 255.0 | 0.00 | 0.00 | 0.00 | 1009.7 | |
| 20260505170418 | 0 | 767 | 255.0 | 255.0 | 0.00 | 0.00 | 0.00 | 1009.8 | |
| 20260505165918 | 0 | 767 | 255.0 | 255.0 | 0.00 | 0.00 | 0.00 | 1009.8 | |
| 20260505165418 | 0 | 767 | 255.0 | 255.0 | 0.00 | 0.00 | 0.00 | 1009.8 | |
| 20260505164920 | 0 | 767 | 255.0 | 255.0 | 0.00 | 0.00 | 0.00 | 1009.8 | |
| 20260505164418 | 0 | 767 | 255.0 | 255.0 | 0.00 | 0.00 | 0.00 | 1009.8 | |
| 20260505163918 | 0 | 767 | 255.0 | 255.0 | 0.00 | 0.00 | 0.00 | 1009.8 | |
| 20260505163418 | 0 | 767 | 255.0 | 255.0 | 0.00 | 0.00 | 0.00 | 1009.9 | |
| 20260505162918 | 0 | 767 | 255.0 | 255.0 | 0.00 | 0.00 | 0.00 | 1009.8 | |
| 20260505162422 | 0 | 767 | 255.0 | 255.0 | 0.00 | 0.00 | 0.00 | 1009.9 | |
| 20260505161918 | 0 | 767 | 255.0 | 255.0 | 0.00 | 0.00 | 0.00 | 1009.8 | |
| 20260505161418 | 0 | 767 | 255.0 | 255.0 | 0.00 | 0.00 | 0.00 | 1009.8 | |
| 20260505160918 | 0 | 767 | 255.0 | 255.0 | 0.00 | 0.00 | 0.00 | 1009.6 | |
| 20260505160418 | 0 | 767 | 255.0 | 255.0 | 0.00 | 0.00 | 0.00 | 1009.7 | |
| 20260505152918 | 0 | 767 | 255.0 | 255.0 | 0.00 | 0.00 | 0.00 | 1009.8 | |
| 20260505152418 | 0 | 767 | 255.0 | 255.0 | 0.00 | 0.00 | 0.00 | 1009.8 | |
| 20260505151918 | 0 | 767 | 255.0 | 255.0 | 0.00 | 0.00 | 0.00 | 1009.7 | |
| 20260505151418 | 0 | 767 | 255.0 | 255.0 | 0.00 | 0.00 | 0.00 | 1009.8 | |
| 20260505150918 | 0 | 767 | 255.0 | 255.0 | 0.00 | 0.00 | 0.00 | 1009.6 | |
| 20260505150418 | 0 | 767 | 255.0 | 255.0 | 0.00 | 0.00 | 0.00 | 1009.8 | |
| 20260505140418 | 0 | 767 | 255.0 | 255.0 | 0.00 | 0.00 | 0.00 | 1009.8 | |
| 20260505124918 | 0 | 767 | 255.0 | 255.0 | 0.00 | 0.00 | 0.00 | 1009.5 | |
| 20260505124418 | 0 | 767 | 255.0 | 255.0 | 0.00 | 0.00 | 0.00 | 1009.4 | |
| 20260505123918 | 0 | 767 | 255.0 | 255.0 | 0.00 | 0.00 | 0.00 | 1009.4 | |
| 20260505123423 | 0 | 767 | 255.0 | 255.0 | 0.00 | 0.00 | 0.00 | 1009.3 | |
| 20260505122918 | 0 | 767 | 255.0 | 255.0 | 0.00 | 0.00 | 0.00 | 1009.2 | |
| 20260505122418 | 0 | 767 | 255.0 | 255.0 | 0.00 | 0.00 | 0.00 | 1009.2 | |
| 20260505121918 | 0 | 767 | 255.0 | 255.0 | 0.00 | 0.00 | 0.00 | 1009.3 | |
| 20260505121418 | 0 | 767 | 255.0 | 255.0 | 0.00 | 0.00 | 0.00 | 1009.1 | |
| 20260505120918 | 0 | 767 | 255.0 | 255.0 | 0.00 | 0.00 | 0.00 | ||
| 20260505120418 | 0 | 767 | 255.0 | 255.0 | 0.00 | 0.00 | 0.00 | ||
| 20260505115918 | 0 | 767 | 255.0 | 255.0 | 0.00 | 0.00 | 0.00 | 1009.1 | |
| 20260505115418 | 0 | 767 | 255.0 | 255.0 | 0.00 | 0.00 | 0.00 | 1009.0 | |
| 20260505114918 | 0 | 767 | 255.0 | 255.0 | 0.00 | 0.00 | 0.00 | 1008.8 | |
| 20260505114418 | 0 | 767 | 255.0 | 255.0 | 0.00 | 0.00 | 0.00 | 1008.7 | |
| 20260505113918 | 0 | 767 | 255.0 | 255.0 | 0.00 | 0.00 | 0.00 | 1008.7 | |
| 20260505113418 | 0 | 767 | 255.0 | 255.0 | 0.00 | 0.00 | 0.00 | 1008.7 | |
| 20260505112918 | 0 | 767 | 255.0 | 255.0 | 0.00 | 0.00 | 0.00 | 1008.7 | |
| 20260505112418 | 0 | 767 | 255.0 | 255.0 | 0.00 | 0.00 | 0.00 | 1008.5 | |
| 20260505111918 | 0 | 767 | 255.0 | 255.0 | 0.00 | 0.00 | 0.00 | 1008.5 | |
| 20260505111418 | 0 | 767 | 255.0 | 255.0 | 0.00 | 0.00 | 0.00 | 1008.3 | |
| 20260505110918 | 0 | 767 | 255.0 | 255.0 | 0.00 | 0.00 | 0.00 | ||
| 20260505110418 | 0 | 767 | 255.0 | 255.0 | 0.00 | 0.00 | 0.00 | ||
| 20260505101918 | 0 | 767 | 255.0 | 255.0 | 0.00 | 0.00 | 0.00 | 1008.1 | |
| 20260505101418 | 0 | 767 | 255.0 | 255.0 | 0.00 | 0.00 | 0.00 | 1008.0 | |
| 20260505100918 | 0 | 767 | 255.0 | 255.0 | 0.00 | 0.00 | 0.00 | 1008.0 | |
| 20260505100418 | 0 | 767 | 255.0 | 255.0 | 0.00 | 0.00 | 0.00 | 1008.1 | |
| 20260505095918 | 0 | 767 | 255.0 | 255.0 | 0.00 | 0.00 | 0.00 | 1008.0 | |
| 20260505095418 | 0 | 767 | 255.0 | 255.0 | 0.00 | 0.00 | 0.00 | 1008.1 | |
| 20260505094918 | 0 | 767 | 255.0 | 255.0 | 0.00 | 0.00 | 0.00 | 1008.3 | |
| 20260505094418 | 0 | 767 | 255.0 | 255.0 | 0.00 | 0.00 | 0.00 | 1008.4 | |
| 20260505093918 | 0 | 767 | 255.0 | 255.0 | 0.00 | 0.00 | 0.00 | 1008.3 | |
| 20260505093418 | 0 | 767 | 255.0 | 255.0 | 0.00 | 0.00 | 0.00 | 1008.4 | |
| 20260505092918 | 0 | 767 | 255.0 | 255.0 | 0.00 | 0.00 | 0.00 | 1008.3 | |
| 20260505092419 | 0 | 767 | 255.0 | 255.0 | 0.00 | 0.00 | 0.00 | 1008.4 | |
| 20260505091918 | 0 | 767 | 255.0 | 255.0 | 0.00 | 0.00 | 0.00 | 1008.5 | |
| 20260505091418 | 0 | 767 | 255.0 | 255.0 | 0.00 | 0.00 | 0.00 | 1008.5 | |
| 20260505090918 | 0 | 767 | 255.0 | 255.0 | 0.00 | 0.00 | 0.00 | 1008.5 | |
| 20260505090418 | 0 | 767 | 255.0 | 255.0 | 0.00 | 0.00 | 0.00 | 1008.5 | |
| 20260505085918 | 0 | 767 | 255.0 | 255.0 | 0.00 | 0.00 | 0.00 | 1008.7 | |
| 20260505085418 | 0 | 767 | 255.0 | 255.0 | 0.00 | 0.00 | 0.00 | 1008.7 | |
| 20260505084918 | 0 | 767 | 255.0 | 255.0 | 0.00 | 0.00 | 0.00 | 1008.7 | |
| 20260505084419 | 0 | 767 | 255.0 | 255.0 | 0.00 | 0.00 | 0.00 | 1008.5 | |
| 20260505083919 | 0 | 767 | 255.0 | 255.0 | 0.00 | 0.00 | 0.00 | 1008.7 | |
| 20260505083419 | 0 | 767 | 255.0 | 255.0 | 0.00 | 0.00 | 0.00 | 1008.7 | |
| 20260505082919 | 0 | 767 | 255.0 | 255.0 | 0.00 | 0.00 | 0.00 | 1008.6 | |
| 20260505082419 | 0 | 767 | 255.0 | 255.0 | 0.00 | 0.00 | 0.00 | 1008.5 | |
| 20260505081921 | 0 | 767 | 255.0 | 255.0 | 0.00 | 0.00 | 0.00 | 1008.7 | |
| 20260505081419 | 0 | 767 | 255.0 | 255.0 | 0.00 | 0.00 | 0.00 | 1008.6 | |
| 20260505080919 | 0 | 767 | 255.0 | 255.0 | 0.00 | 0.00 | 0.00 | 1008.5 | |
| 20260505080419 | 0 | 767 | 255.0 | 255.0 | 0.00 | 0.00 | 0.00 | 1008.6 | |
| 20260505075919 | 0 | 767 | 255.0 | 255.0 | 0.00 | 0.00 | 0.00 | 1008.6 | |
| 20260505075419 | 0 | 767 | 255.0 | 255.0 | 0.00 | 0.00 | 0.00 | 1008.6 | |
| 20260505074919 | 0 | 767 | 255.0 | 255.0 | 0.00 | 0.00 | 0.00 | 1008.7 | |
| 20260505074419 | 0 | 767 | 255.0 | 255.0 | 0.00 | 0.00 | 0.00 | 1009.0 | |
| 20260505073919 | 0 | 767 | 255.0 | 255.0 | 0.00 | 0.00 | 0.00 | 1009.0 | |
| 20260505073419 | 0 | 767 | 255.0 | 255.0 | 0.00 | 0.00 | 0.00 | 1009.0 | |
| 20260505072919 | 0 | 767 | 255.0 | 255.0 | 0.00 | 0.00 | 0.00 | 1009.0 | |
| 20260505072419 | 0 | 767 | 255.0 | 255.0 | 0.00 | 0.00 | 0.00 | 1009.2 | |
| 20260505071919 | 0 | 767 | 255.0 | 255.0 | 0.00 | 0.00 | 0.00 | 1009.2 | |
| 20260505071419 | 0 | 767 | 255.0 | 255.0 | 0.00 | 0.00 | 0.00 | 1009.4 | |
| 20260505070919 | 0 | 767 | 255.0 | 255.0 | 0.00 | 0.00 | 0.00 | 1009.1 | |
| 20260505070419 | 0 | 767 | 255.0 | 255.0 | 0.00 | 0.00 | 0.00 | 1009.0 | |
| 20260505065919 | 0 | 767 | 255.0 | 255.0 | 0.00 | 0.00 | 0.00 | 1008.9 | |
| 20260505065419 | 0 | 767 | 255.0 | 255.0 | 0.00 | 0.00 | 0.00 | 1009.2 | |
| 20260505064919 | 0 | 767 | 255.0 | 255.0 | 0.00 | 0.00 | 0.00 | 1009.1 | |
| 20260505064419 | 0 | 767 | 255.0 | 255.0 | 0.00 | 0.00 | 0.00 | 1009.1 | |
| 20260505063919 | 0 | 767 | 255.0 | 255.0 | 0.00 | 0.00 | 0.00 | 1009.2 | |
| 20260505063419 | 0 | 767 | 255.0 | 255.0 | 0.00 | 0.00 | 0.00 | 1009.1 | |
| 20260505062919 | 0 | 767 | 255.0 | 255.0 | 0.00 | 0.00 | 0.00 | 1009.3 | |
| 20260505062419 | 0 | 767 | 255.0 | 255.0 | 0.00 | 0.00 | 0.00 | 1009.4 | |
| 20260505061921 | 0 | 767 | 255.0 | 255.0 | 0.00 | 0.00 | 0.00 | 1009.3 | |
| 20260505061421 | 0 | 767 | 255.0 | 255.0 | 0.00 | 0.00 | 0.00 | 1009.4 | |
| 20260505060919 | 0 | 767 | 255.0 | 255.0 | 0.00 | 0.00 | 0.00 | 1009.4 | |
| 20260505060419 | 0 | 767 | 255.0 | 255.0 | 0.00 | 0.00 | 0.00 | 1009.5 | |
| 20260505055923 | 0 | 767 | 255.0 | 255.0 | 0.00 | 0.00 | 0.00 | 1009.5 | |
| 20260505055421 | 0 | 767 | 255.0 | 255.0 | 0.00 | 0.00 | 0.00 | 1009.5 | |
| 20260505054919 | 0 | 767 | 255.0 | 255.0 | 0.00 | 0.00 | 0.00 | 1009.5 | |
| 20260505054419 | 0 | 767 | 255.0 | 255.0 | 0.00 | 0.00 | 0.00 | 1009.5 |